This is the latest recevied weather packets stored in our database for station/object K4AGR-13. If no packets are shown the sender has not sent any weather packets the latest 10 day(s).
| Time | Temp. | Humidity | Pressure | Rain* | Wind** | Luminosity | Snow |
|---|---|---|---|---|---|---|---|
| 1777651839 | 18.33° C | 73% | 1014.5 hPa | 0 mm | - | 120 W/m² | - |
| 1777651536 | 18.33° C | 70% | 1014.3 hPa | 0 mm | - | 142 W/m² | - |
| 1777651233 | 17.78° C | 70% | 1014.2 hPa | 0 mm | - | 308 W/m² | - |
| 1777650929 | 18.33° C | 69% | 1014.2 hPa | 0 mm | - | 155 W/m² | - |
| 1777650627 | 18.33° C | 72% | 1013.9 hPa | 0 mm | - | 327 W/m² | - |
| 1777650324 | 17.78° C | 70% | 1013.9 hPa | 0 mm | - | 123 W/m² | - |
| 1777650021 | 17.78° C | 72% | 1014 hPa | 0 mm | - | 149 W/m² | - |
| 1777649719 | 17.78° C | 72% | 1013.8 hPa | 0 mm | - | 232 W/m² | - |
| 1777649414 | 17.78° C | 72% | 1014 hPa | 0 mm | - | 172 W/m² | - |
| 1777649112 | 17.78° C | 72% | 1014 hPa | 0 mm | - | 80 W/m² | - |
| 1777648809 | 17.78° C | 73% | 1014.1 hPa | 0 mm | - | 109 W/m² | - |
| 1777648506 | 17.78° C | 72% | 1013.7 hPa | 0 mm | - | 164 W/m² | - |
| 1777648203 | 18.33° C | 71% | 1013.5 hPa | 0 mm | - | 223 W/m² | - |
| 1777647898 | 17.78° C | 68% | 1013.3 hPa | 0 mm | - | 156 W/m² | - |
| 1777647595 | 17.78° C | 67% | 1013.3 hPa | 0 mm | - | 164 W/m² | - |
| 1777647291 | 17.78° C | 66% | 1013.4 hPa | 0 mm | - | 100 W/m² | - |
| 1777646989 | 17.78° C | 66% | 1013.3 hPa | 0 mm | - | 127 W/m² | - |
| 1777646684 | 17.78° C | 67% | 1013.4 hPa | 0 mm | - | 150 W/m² | - |
| 1777646380 | 17.78° C | 66% | 1013.4 hPa | 0 mm | - | 185 W/m² | - |
| 1777646077 | 17.78° C | 66% | 1013.5 hPa | 0 mm | - | 94 W/m² | - |
| 1777645773 | 17.78° C | 68% | 1013.5 hPa | 0 mm | - | 116 W/m² | - |
| 1777645471 | 17.78° C | 67% | 1013.4 hPa | 0 mm | - | 128 W/m² | - |
| 1777645166 | 17.78° C | 66% | 1013.6 hPa | 0 mm | - | 93 W/m² | - |
| 1777644863 | 17.78° C | 69% | 1013.6 hPa | 0 mm | - | 105 W/m² | - |
| 1777644561 | 17.78° C | 69% | 1013.5 hPa | 0 mm | - | 98 W/m² | - |
* Rain latest hour (hover to see other rain measurements)
** Current wind speed in m/s (hover to see current wind gust speed)